Weather History for Wiscasset, ME

Change the Weather History Date:

Sunday, October 2, 2011

  Actual Average Record
Temperature  
Mean Temperature 54 °F -  
Max Temperature 60 °F 60 °F 79 °F (2013)
Min Temperature 48 °F 38 °F 32 °F (1997)
Degree Days  
Heating Degree Days 11    
Growing Degree Days 4 (Base 50)    
Moisture  
Dew Point 54 °F    
Average Humidity 94    
Maximum Humidity 100    
Minimum Humidity 88    
Precipitation  
Precipitation 1.39 in - - ()
Sea Level Pressure  
Sea Level Pressure 29.91 in    
Wind  
Wind Speed 4 mph (NE)    
Max Wind Speed 8 mph    
Max Gust Speed -    
Visibility 4 miles    
Events Rain , Thunderstorm    
Averages and records for this station are not official NWS values.
T = Trace of Precipitation, MM = Missing Value Source: NWS Daily Summary

Daily Weather History Graph

Daily Weather History Graph

Search for Another Location

Airport:

Trip Planner

Search our weather history database for the weather conditions in past years. The results will help you decide how hot, cold, wet, or windy it might be!

Date:

Astronomy

Oct. 02, 2011 Rise Set
Actual Time 6:37 AM EDT 6:18 PM EDT
Civil Twilight 6:08 AM EDT 6:47 PM EDT
Nautical Twilight 5:35 AM EDT 7:20 PM EDT
Astronomical Twilight 5:01 AM EDT 7:54 PM EDT
Moon 12:52 PM EDT (10/2) 10:01 PM EDT (10/2)
Length of Visible Light 12h 38m
Length of Day
11h 41m
Waxing Crescent, 34% of the Moon is Illuminated
Oct 2
Waxing Crescent
Oct 3
First Quarter
Oct 11
Full
Oct 19
Last Quarter
Oct 26
New

Hourly Weather History & Observations

Time (EDT) Temp. Dew Point Humidity Pressure Visibility Wind Dir Wind Speed Gust Speed Precip Events Conditions
12:02 AM 48.2 °F 48.2 °F 100% 29.88 in 6.0 mi Variable 5.8 mph - N/A   Overcast
12:53 AM 48.9 °F 48.0 °F 97% 29.89 in 6.0 mi Variable 5.8 mph - N/A   Overcast
1:53 AM 48.9 °F 46.9 °F 93% 29.91 in 6.0 mi Variable 4.6 mph - N/A   Overcast
2:53 AM 50.0 °F 48.0 °F 93% 29.92 in 4.0 mi Variable 4.6 mph - N/A   Overcast
3:30 AM 50.0 °F 48.2 °F 94% 29.92 in 2.5 mi Calm Calm - 0.01 in   Overcast
3:53 AM 50.0 °F 48.0 °F 93% 29.92 in 2.0 mi Calm Calm - 0.01 in   Overcast
4:53 AM 50.0 °F 48.9 °F 96% 29.93 in 2.5 mi Variable 3.5 mph - N/A   Overcast
5:44 AM 51.8 °F 48.2 °F 88% 29.93 in 3.0 mi Variable 3.5 mph - 0.01 in   Overcast
6:40 AM 51.8 °F 50.0 °F 94% 29.94 in 7.0 mi Variable 4.6 mph - 0.04 in Rain Rain
6:53 AM 52.0 °F 50.0 °F 93% 29.95 in 5.0 mi Variable 4.6 mph - 0.09 in Rain Rain
7:36 AM 53.6 °F 51.8 °F 94% 29.94 in 9.0 mi Variable 5.8 mph - 0.03 in Rain Light Rain
7:46 AM 53.6 °F 51.8 °F 94% 29.94 in 10.0 mi Variable 3.5 mph - 0.03 in Rain Light Rain
7:53 AM 53.1 °F 51.1 °F 93% 29.94 in 10.0 mi Variable 4.6 mph - 0.03 in Rain Light Rain
8:35 AM 53.6 °F 51.8 °F 94% 29.94 in 1.8 mi Calm Calm - 0.08 in Rain Heavy Rain
8:51 AM 53.6 °F 51.8 °F 94% 29.91 in 3.0 mi Variable 5.8 mph - 0.16 in Rain Rain
8:53 AM 53.1 °F 51.1 °F 93% 29.91 in 4.0 mi NNE 6.9 mph - 0.16 in Rain Rain
9:17 AM 53.6 °F 51.8 °F 94% 29.91 in 1.8 mi North 8.1 mph - 0.12 in Rain Heavy Rain
9:25 AM 53.6 °F 51.8 °F 94% 29.92 in 1.2 mi Variable 6.9 mph - 0.16 in Rain Rain
9:28 AM 53.6 °F 51.8 °F 94% 29.92 in 2.0 mi Variable 4.6 mph - 0.17 in Rain Rain
9:37 AM 53.6 °F 51.8 °F 94% 29.92 in 4.0 mi Variable 5.8 mph - 0.18 in Rain Light Rain
9:44 AM 53.6 °F 51.8 °F 94% 29.93 in 2.5 mi Variable 3.5 mph - 0.22 in Rain Heavy Rain
9:59 AM 53.6 °F 51.8 °F 94% 29.94 in 1.2 mi Variable 3.5 mph - 0.06 in Rain Heavy Rain
10:10 AM 53.6 °F 53.6 °F 100% 29.93 in 2.0 mi Calm Calm - 0.10 in Rain Rain
10:21 AM 53.6 °F 53.6 °F 100% 29.92 in 4.0 mi Calm Calm - 0.12 in Rain Light Rain
10:53 AM 55.0 °F 54.0 °F 96% 29.93 in 2.0 mi NNE 4.6 mph - 0.18 in Rain Heavy Rain
11:08 AM 55.4 °F 53.6 °F 94% 29.92 in 6.0 mi Variable 4.6 mph - 0.01 in Rain Light Rain
11:53 AM 55.9 °F 54.0 °F 93% 29.92 in 5.0 mi Variable 3.5 mph - 0.02 in Rain Light Rain
12:02 PM 55.4 °F 53.6 °F 94% 29.92 in 1.8 mi Variable 5.8 mph - 0.05 in Rain Light Rain
12:14 PM 55.4 °F 55.4 °F 100% 29.91 in 3.0 mi Variable 3.5 mph - 0.06 in Rain Light Rain
12:53 PM 57.0 °F 55.0 °F 93% 29.90 in 5.0 mi Variable 3.5 mph - 0.11 in Rain Light Rain
1:21 PM 57.2 °F 55.4 °F 94% 29.90 in 10.0 mi ENE 4.6 mph - 0.01 in Rain Light Rain
2:01 PM 57.2 °F 55.4 °F 94% 29.87 in 6.0 mi NE 5.8 mph - 0.01 in Rain Light Rain
2:30 PM 59.0 °F 57.2 °F 94% 29.86 in 3.0 mi NE 6.9 mph - 0.01 in   Overcast
2:53 PM 59.0 °F 57.0 °F 93% 29.86 in 2.5 mi Variable 5.8 mph - 0.01 in Rain Light Rain
3:02 PM 59.0 °F 57.2 °F 94% 29.86 in 1.2 mi Variable 5.8 mph - 0.02 in Rain Heavy Rain
3:11 PM 59.0 °F 57.2 °F 94% 29.86 in 2.0 mi Variable 5.8 mph - 0.03 in Rain Light Rain
3:30 PM 59.0 °F 57.2 °F 94% 29.86 in 4.0 mi Variable 4.6 mph - 0.05 in Rain Light Rain
3:53 PM 59.0 °F 57.0 °F 93% 29.86 in 2.0 mi Variable 5.8 mph - 0.06 in Rain Light Rain
4:10 PM 59.0 °F 57.2 °F 94% 29.86 in 1.5 mi Variable 4.6 mph - 0.00 in   Overcast
4:41 PM 59.0 °F 57.2 °F 94% 29.86 in 2.5 mi Variable 4.6 mph - 0.01 in   Overcast
4:53 PM 60.1 °F 57.9 °F 93% 29.87 in 2.5 mi Variable 5.8 mph - 0.01 in Rain Light Rain
5:08 PM 60.8 °F 57.2 °F 88% 29.87 in 1.5 mi Variable 5.8 mph - 0.03 in Rain Rain
5:16 PM 60.8 °F 57.2 °F 88% 29.87 in 2.0 mi NE 4.6 mph - 0.04 in Rain Light Rain
5:28 PM 60.8 °F 57.2 °F 88% 29.87 in 3.0 mi ENE 5.8 mph - 0.04 in   Overcast
5:48 PM 59.0 °F 57.2 °F 94% 29.88 in 2.5 mi NE 8.1 mph - 0.09 in Rain Rain
5:53 PM 59.0 °F 57.0 °F 93% 29.88 in 2.5 mi NE 5.8 mph - 0.11 in Rain Rain
6:13 PM 59.0 °F 57.2 °F 94% 29.88 in 4.0 mi Variable 5.8 mph - 0.06 in Rain Rain
6:28 PM 59.0 °F 57.2 °F 94% 29.88 in 4.0 mi Calm Calm - 0.11 in Rain Rain
6:53 PM 57.9 °F 57.0 °F 97% 29.89 in 3.0 mi Variable 4.6 mph - 0.20 in Rain Light Rain
7:13 PM 57.2 °F 55.4 °F 94% 29.89 in 2.5 mi Variable 4.6 mph - 0.07 in Rain Rain
7:21 PM 57.2 °F 55.4 °F 94% 29.89 in 2.5 mi Variable 3.5 mph - 0.08 in Rain Light Rain
7:28 PM 57.2 °F 55.4 °F 94% 29.89 in 5.0 mi Calm Calm - 0.08 in Rain Light Rain
7:44 PM 57.2 °F 55.4 °F 94% 29.90 in 2.5 mi Calm Calm - 0.11 in Rain Rain
7:53 PM 57.9 °F 55.9 °F 93% 29.90 in 3.0 mi Calm Calm - 0.15 in Rain Rain
8:12 PM 57.2 °F 55.4 °F 94% 29.90 in 2.5 mi Calm Calm - 0.14 in Rain Rain
8:19 PM 57.2 °F 55.4 °F 94% 29.90 in 1.2 mi Variable 3.5 mph - 0.25 in Rain Heavy Rain
8:31 PM 57.2 °F 55.4 °F 94% 29.92 in 3.0 mi Calm Calm - 0.31 in Rain Light Rain
8:35 PM 57.2 °F 55.4 °F 94% 29.93 in 1.8 mi Calm Calm - 0.43 in Rain Heavy Rain
8:39 PM 57.2 °F 55.4 °F 94% 29.92 in 0.8 mi NNE 5.8 mph - 0.76 in Rain , Thunderstorm Heavy Thunderstorms and Rain
8:48 PM 57.2 °F 55.4 °F 94% 29.92 in 1.0 mi ENE 4.6 mph - 0.98 in Rain , Thunderstorm Heavy Thunderstorms and Rain
9:02 PM 57.2 °F 55.4 °F 94% 29.93 in 4.0 mi Calm Calm - 0.02 in Rain , Thunderstorm Thunderstorms and Rain
9:07 PM 57.2 °F 55.4 °F 94% 29.93 in 4.0 mi Calm Calm - 0.03 in Rain Rain
9:53 PM 57.0 °F 55.9 °F 96% 29.94 in 6.0 mi Calm Calm - 0.07 in Rain Rain
10:04 PM 57.2 °F 55.4 °F 94% 29.94 in 4.0 mi Calm Calm - 0.03 in Rain Heavy Rain
10:08 PM 57.2 °F 55.4 °F 94% 29.94 in 2.5 mi Calm Calm - 0.06 in Rain Heavy Rain
10:24 PM 57.2 °F 55.4 °F 94% 29.93 in 3.0 mi Variable 3.5 mph - 0.14 in Rain Heavy Rain
10:53 PM 57.0 °F 55.9 °F 96% 29.92 in 10.0 mi Variable 3.5 mph - 0.17 in Rain Light Rain
11:53 PM 57.0 °F 55.9 °F 96% 29.94 in 3.0 mi Calm Calm - 0.01 in   Overcast